Weather History for Decatur, AL

Change the Weather History Date:

Sunday, November 24, 2013

  Actual Average Record
Temperature  
Mean Temperature 31 °F -  
Max Temperature 39 °F 60 °F 75 °F (1958)
Min Temperature 23 °F 36 °F 12 °F (1970)
Degree Days  
Heating Degree Days 34    
Moisture  
Dew Point 14 °F    
Average Humidity 52    
Maximum Humidity 69    
Minimum Humidity 32    
Precipitation  
Precipitation 0.00 in - - ()
Sea Level Pressure  
Sea Level Pressure 30.52 in    
Wind  
Wind Speed 14 mph (NNE)    
Max Wind Speed 20 mph    
Max Gust Speed 26 mph    
Visibility 10 miles    
Events      
Averages and records for this station are not official NWS values.
T = Trace of Precipitation, MM = Missing Value Source: NWS Daily Summary

Daily Weather History Graph

Daily Weather History Graph

Search for Another Location

Airport:

Trip Planner

Search our weather history database for the weather conditions in past years. The results will help you decide how hot, cold, wet, or windy it might be!

Date:

Astronomy

Nov. 24, 2013 Rise Set
Actual Time 6:30 AM CST 4:38 PM CST
Civil Twilight 6:03 AM CST 5:05 PM CST
Nautical Twilight 5:32 AM CST 5:36 PM CST
Astronomical Twilight 5:02 AM CST 6:06 PM CST
Moon 10:55 PM CST (11/24) 11:24 AM CST (11/24)
Length of Visible Light 11h 02m
Length of Day
10h 08m
Waning Gibbous, 60% of the Moon is Illuminated
Nov 24
Waning Gibbous
Nov 25
Last Quarter
Dec 2
New
Dec 9
First Quarter
Dec 17
Full

Hourly Weather History & Observations

Time (CST) Temp. Windchill Dew Point Humidity Pressure Visibility Wind Dir Wind Speed Gust Speed Precip Events Conditions
12:53 AM 28.9 °F 16.1 °F 18.0 °F 64% 30.48 in 10.0 mi North 19.6 mph 25.3 mph N/A   Clear
1:53 AM 27.0 °F 13.5 °F 18.0 °F 69% 30.51 in 10.0 mi NNE 19.6 mph 26.5 mph N/A   Clear
2:53 AM 26.1 °F 13.6 °F 16.0 °F 66% 30.51 in 10.0 mi North 16.1 mph 23.0 mph N/A   Clear
3:53 AM 25.0 °F 12.6 °F 16.0 °F 69% 30.52 in 10.0 mi North 15.0 mph - N/A   Clear
4:53 AM 24.1 °F 11.0 °F 15.1 °F 69% 30.52 in 10.0 mi North 16.1 mph - N/A   Clear
5:53 AM 24.1 °F 11.5 °F 14.0 °F 65% 30.56 in 10.0 mi NNE 15.0 mph 23.0 mph N/A   Clear
6:53 AM 23.0 °F 9.6 °F 12.9 °F 65% 30.59 in 10.0 mi NNE 16.1 mph - N/A   Clear
7:53 AM 26.1 °F 13.6 °F 12.9 °F 58% 30.62 in 10.0 mi NNE 16.1 mph - N/A   Clear
8:53 AM 28.0 °F 16.5 °F 12.0 °F 51% 30.61 in 10.0 mi NNE 15.0 mph 23.0 mph N/A   Clear
9:53 AM 30.9 °F 21.7 °F 12.9 °F 47% 30.60 in 10.0 mi NE 11.5 mph 21.9 mph N/A   Clear
10:53 AM 34.0 °F 25.0 °F 14.0 °F 44% 30.58 in 10.0 mi NE 12.7 mph 18.4 mph N/A   Clear
11:53 AM 36.0 °F 27.5 °F 12.9 °F 39% 30.54 in 10.0 mi NE 12.7 mph 20.7 mph N/A   Clear
12:53 PM 37.9 °F 29.6 °F 12.0 °F 35% 30.50 in 10.0 mi North 13.8 mph 19.6 mph N/A   Clear
1:53 PM 39.0 °F 31.0 °F 10.9 °F 32% 30.49 in 10.0 mi NNE 13.8 mph 18.4 mph N/A   Clear
2:53 PM 39.0 °F 32.8 °F 10.9 °F 32% 30.49 in 10.0 mi NNE 9.2 mph - N/A   Clear
3:53 PM 37.9 °F 30.0 °F 12.0 °F 35% 30.49 in 10.0 mi North 12.7 mph - N/A   Clear
4:53 PM 34.0 °F 28.0 °F 15.1 °F 46% 30.49 in 10.0 mi North 6.9 mph - N/A   Clear
5:53 PM 32.0 °F 24.2 °F 14.0 °F 48% 30.49 in 10.0 mi NNE 9.2 mph - N/A   Clear
6:53 PM 30.0 °F 22.4 °F 14.0 °F 51% 30.49 in 10.0 mi NNE 8.1 mph - N/A   Clear
7:53 PM 30.0 °F 24.1 °F 12.9 °F 49% 30.49 in 10.0 mi NNE 5.8 mph - N/A   Clear
8:53 PM 28.9 °F 25.2 °F 12.0 °F 49% 30.49 in 10.0 mi NE 3.5 mph - N/A   Clear
9:53 PM 28.9 °F 22.8 °F 12.9 °F 51% 30.48 in 10.0 mi NNE 5.8 mph - N/A   Clear
10:53 PM 28.0 °F 21.7 °F 12.9 °F 53% 30.46 in 10.0 mi NE 5.8 mph - N/A   Clear
11:53 PM 28.9 °F 23.9 °F 12.9 °F 51% 30.45 in 10.0 mi NE 4.6 mph - N/A   Clear